CDT,Max TemperatureF,Mean TemperatureF,Min TemperatureF,Max Dew PointF,MeanDew PointF,Min DewpointF,Max Humidity, Mean Humidity, Min Humidity, Max Sea Level PressureIn, Mean Sea Level PressureIn, Min Sea Level PressureIn, Max VisibilityMiles, Mean VisibilityMiles, Min VisibilityMiles, Max Wind SpeedMPH, Mean Wind SpeedMPH, Max Gust SpeedMPH,PrecipitationIn, CloudCover, Events, WindDirDegrees
2013-3-1,55,47,39,33,30,27,76,55,33,30.14,30.08,30.01,10,10,10,13,6,,0.00,2,,333
2013-3-2,48,38,28,28,24,20,85,54,32,30.17,30.13,30.07,10,10,10,20,8,26,0.00,4,,314
2013-3-3,52,41,30,27,23,16,85,54,24,30.21,30.17,30.12,10,10,10,15,9,21,0.00,2,,323
2013-3-4,63,46,28,47,36,20,88,66,23,30.23,30.14,30.04,10,10,9,14,3,20,0.00,2,Rain,153
2013-3-5,75,60,42,59,53,38,93,73,45,30.13,30.03,29.93,10,9,2,24,7,33,0.10,5,Rain,250
2013-3-6,57,47,37,37,28,23,89,51,27,30.27,30.20,30.13,10,10,7,20,8,23,0.00,0,,331
2013-3-7,66,50,33,38,30,26,89,60,23,30.34,30.27,30.22,10,10,6,8,4,,0.00,0,,348
2013-3-8,73,52,30,40,32,24,89,57,16,30.32,30.25,30.20,10,7,3,7,1,,0.00,0,,341
2013-3-9,71,56,41,48,41,37,89,61,30,30.25,30.20,30.12,10,9,5,12,3,,0.00,0,,136
2013-3-10,73,62,50,55,51,35,92,66,44,30.14,30.09,30.01,10,10,3,21,7,30,0.00,1,Rain,140
2013-3-11,70,59,48,61,53,43,94,88,71,30.01,29.92,29.84,10,6,0,20,5,26,1.20,7,Fog-Rain,30
2013-3-12,66,54,42,41,34,28,86,56,24,30.18,30.07,29.96,10,10,10,17,8,24,0.00,0,,340
2013-3-13,66,50,35,35,28,20,89,43,17,30.34,30.27,30.19,10,10,10,14,7,24,0.00,0,,334
2013-3-14,66,50,37,34,24,16,82,45,16,30.44,30.35,30.29,10,10,5,12,5,18,0.00,0,,346
2013-3-15,75,54,32,48,38,29,89,60,23,30.32,30.24,30.16,10,10,9,15,3,23,0.00,0,,213
2013-3-16,75,57,39,55,46,37,96,76,35,30.14,30.10,30.02,10,7,0,17,3,25,0.00,3,Fog-Rain,221
2013-3-17,73,62,51,62,56,48,100,85,61,30.06,30.01,29.96,10,6,0,13,2,17,0.00,5,Fog-Rain,163
2013-3-18,79,66,55,67,61,54,96,83,61,29.98,29.92,29.83,10,7,0,16,4,22,0.08,7,Fog-Rain-Thunderstorm,150
2013-3-19,80,68,57,61,53,39,94,72,27,30.07,30.00,29.90,10,9,2,12,4,20,0.03,4,Rain-Thunderstorm,22
2013-3-20,66,52,39,37,33,27,82,43,25,30.11,30.03,29.99,10,10,10,12,7,17,0.00,2,,15
2013-3-21,66,52,37,39,28,16,76,45,16,30.08,30.00,29.93,10,10,10,9,4,18,0.00,1,,337
2013-3-22,68,57,48,43,35,26,77,45,25,30.02,29.96,29.93,10,10,10,10,4,18,0.00,8,,80
2013-3-23,69,61,54,61,56,40,94,80,51,29.93,29.80,29.64,10,8,2,12,3,,0.14,8,Rain-Thunderstorm,76
2013-3-24,84,68,48,70,54,30,94,64,21,29.90,29.67,29.56,10,8,2,24,9,33,0.04,5,Rain,273
2013-3-25,61,50,39,30,22,15,60,37,19,30.22,30.05,29.92,10,10,9,22,13,32,0.00,0,,316
2013-3-26,55,44,33,26,22,20,72,44,25,30.38,30.28,30.23,10,10,10,15,7,24,0.00,0,,331
2013-3-27,63,48,32,32,25,20,82,51,19,30.44,30.36,30.29,10,10,10,9,3,17,0.00,0,,8
2013-3-28,72,49,28,38,30,23,89,55,17,30.38,30.32,30.25,10,10,7,9,2,,0.00,0,,170
2013-3-29,75,54,34,45,35,27,89,56,18,30.35,30.29,30.24,10,10,7,15,3,21,0.00,0,,185
2013-3-30,77,60,42,57,48,39,96,75,36,30.23,30.18,30.09,10,6,0,17,2,24,0.00,3,Fog,182
2013-3-31,82,67,53,64,56,52,100,82,44,30.09,30.02,29.92,10,6,0,17,3,25,0.00,6,Fog-Rain,198